HAZ719 ZSAM-VMMC

Flight info

Callsign HAZ719
Flight time 0h 52m
Altitude 30100
Route NUSPA9Z NUSPA W597 IKATA A470 BEBEM/N0485F302 A470 DOTMI/N0484F300 DCT SAMMI J101 SMT
Aircraft B77W/H-SDE1E2E3FGHIJ2J3J4J5M1RWXY/LB1D1

Departure

Time 2026-04-17 08:03
Airport Xiamen Gaoqi International Airport (ZSAM)

Arrival

Time 2026-04-17 08:55
Airport Macau International Airport (VMMC)
Time Latitude Longitude Altitude Speed Heading
2026-04-17 07:49 24.53663 118.12148 82 ft 0 kts 141°
2026-04-17 07:59 24.53651 118.12159 82 ft 3 kts 142°
2026-04-17 07:59 24.53620 118.12169 82 ft 5 kts 182°
2026-04-17 07:59 24.53578 118.12145 82 ft 8 kts 222°
2026-04-17 07:59 24.53544 118.12089 82 ft 9 kts 268°
2026-04-17 08:00 24.53580 118.12037 82 ft 8 kts 320°
2026-04-17 08:00 24.53622 118.11990 82 ft 8 kts 291°
2026-04-17 08:00 24.53606 118.11931 82 ft 8 kts 237°
2026-04-17 08:00 24.53565 118.11874 82 ft 11 kts 231°
2026-04-17 08:01 24.53505 118.11790 82 ft 14 kts 231°
2026-04-17 08:01 24.53457 118.11703 82 ft 12 kts 266°
2026-04-17 08:01 24.53505 118.11630 82 ft 12 kts 319°
2026-04-17 08:01 24.53573 118.11602 82 ft 9 kts 31°
2026-04-17 08:02 24.53619 118.11655 82 ft 9 kts 51°
2026-04-17 08:02 24.53718 118.11794 82 ft 54 kts 52°
2026-04-17 08:02 24.54156 118.12408 82 ft 144 kts 52°
2026-04-17 08:02 24.54921 118.13473 310 ft 201 kts 53°
2026-04-17 08:03 24.55752 118.14651 1471 ft 192 kts 54°
2026-04-17 08:03 24.56509 118.15716 2075 ft 204 kts 53°
2026-04-17 08:03 24.57462 118.17049 2851 ft 213 kts 53°
2026-04-17 08:03 24.58396 118.18358 3636 ft 220 kts 53°
2026-04-17 08:04 24.59040 118.19934 4227 ft 238 kts 85°
2026-04-17 08:04 24.58754 118.21780 4795 ft 255 kts 122°
2026-04-17 08:04 24.57439 118.23172 5398 ft 269 kts 158°
2026-04-17 08:04 24.55585 118.23485 6097 ft 276 kts 193°
2026-04-17 08:05 24.53885 118.22575 7080 ft 272 kts 225°
2026-04-17 08:05 24.52630 118.21084 8202 ft 268 kts 231°
2026-04-17 08:05 24.51438 118.19543 9254 ft 268 kts 232°
2026-04-17 08:05 24.50244 118.17992 10242 ft 271 kts 232°
2026-04-17 08:06 24.48990 118.16361 10903 ft 286 kts 232°
2026-04-17 08:06 24.47684 118.14663 11502 ft 303 kts 232°
2026-04-17 08:06 24.46281 118.12843 12118 ft 320 kts 232°
2026-04-17 08:06 24.44804 118.10927 12753 ft 335 kts 232°
2026-04-17 08:07 24.43259 118.08926 13455 ft 348 kts 232°
2026-04-17 08:07 24.41682 118.06891 14369 ft 353 kts 232°
2026-04-17 08:07 24.40082 118.04829 15385 ft 355 kts 232°
2026-04-17 08:07 24.38456 118.02737 16360 ft 358 kts 232°
2026-04-17 08:08 24.36816 118.00633 17211 ft 363 kts 232°
2026-04-17 08:08 24.35150 117.98505 18060 ft 369 kts 232°
2026-04-17 08:08 24.33491 117.96329 18907 ft 372 kts 234°
2026-04-17 08:08 24.31892 117.94039 19763 ft 376 kts 235°
2026-04-17 08:09 24.30290 117.91750 20577 ft 380 kts 235°
2026-04-17 08:09 24.28649 117.89425 21258 ft 388 kts 234°
2026-04-17 08:09 24.26953 117.87030 21745 ft 400 kts 234°
2026-04-17 08:09 24.25192 117.84562 22129 ft 415 kts 233°
2026-04-17 08:10 24.23147 117.82174 22477 ft 431 kts 227°
2026-04-17 08:10 24.20991 117.79852 22882 ft 442 kts 227°
2026-04-17 08:10 24.18758 117.77459 23526 ft 447 kts 227°
2026-04-17 08:10 24.16500 117.75040 24173 ft 452 kts 227°
2026-04-17 08:11 24.14203 117.72580 24888 ft 454 kts 227°
2026-04-17 08:11 24.11951 117.70167 25720 ft 454 kts 227°
2026-04-17 08:11 24.09680 117.67737 26731 ft 449 kts 227°
2026-04-17 08:11 24.07442 117.65343 27779 ft 443 kts 228°
2026-04-17 08:12 24.05228 117.62974 28527 ft 445 kts 228°
2026-04-17 08:12 24.02984 117.60566 28858 ft 456 kts 228°
2026-04-17 08:12 24.00656 117.58066 29001 ft 470 kts 228°
2026-04-17 08:12 23.98258 117.55492 29044 ft 485 kts 228°
2026-04-17 08:13 23.95771 117.52826 29160 ft 494 kts 227°
2026-04-17 08:13 23.93342 117.50227 29491 ft 495 kts 227°
2026-04-17 08:13 23.90828 117.47539 29915 ft 493 kts 227°
2026-04-17 08:14 23.86757 117.43034 30011 ft 493 kts 233°
2026-04-17 08:14 23.84174 117.38878 29998 ft 491 kts 244°
2026-04-17 08:14 23.82813 117.35465 29992 ft 490 kts 252°
2026-04-17 08:15 23.80713 117.28287 29986 ft 488 kts 253°
2026-04-17 08:15 23.78688 117.21197 29985 ft 487 kts 253°
2026-04-17 08:16 23.76176 117.14280 29960 ft 488 kts 242°
2026-04-17 08:16 23.72034 117.08448 29963 ft 493 kts 229°
2026-04-17 08:17 23.67229 117.02984 29962 ft 495 kts 229°
2026-04-17 08:17 23.62393 116.97495 29958 ft 494 kts 229°
2026-04-17 08:18 23.57610 116.92067 29964 ft 495 kts 229°
2026-04-17 08:18 23.52910 116.86735 29965 ft 495 kts 229°
2026-04-17 08:19 23.48085 116.81265 29963 ft 495 kts 229°
2026-04-17 08:19 23.43129 116.75939 29958 ft 497 kts 223°
2026-04-17 08:20 23.37589 116.71285 29970 ft 499 kts 221°
2026-04-17 08:20 23.31954 116.66611 29969 ft 500 kts 221°
2026-04-17 08:21 23.26378 116.61987 29968 ft 501 kts 221°
2026-04-17 08:21 23.20798 116.57362 29964 ft 500 kts 221°
2026-04-17 08:22 23.15237 116.52756 29964 ft 501 kts 221°
2026-04-17 08:22 23.09686 116.48162 29963 ft 501 kts 221°
2026-04-17 08:23 23.04097 116.43542 29962 ft 501 kts 221°
2026-04-17 08:23 22.98495 116.38916 29961 ft 501 kts 221°
2026-04-17 08:24 22.92920 116.34310 29964 ft 500 kts 221°
2026-04-17 08:24 22.87297 116.29636 29976 ft 501 kts 221°
2026-04-17 08:25 22.81692 116.24982 29972 ft 501 kts 221°
2026-04-17 08:25 22.76087 116.20334 29976 ft 502 kts 221°
2026-04-17 08:26 22.70479 116.15691 29976 ft 502 kts 221°
2026-04-17 08:26 22.64860 116.11070 29976 ft 502 kts 221°
2026-04-17 08:27 22.59251 116.06464 29979 ft 502 kts 221°
2026-04-17 08:27 22.53661 116.01772 29982 ft 500 kts 225°
2026-04-17 08:28 22.49305 115.96034 29984 ft 493 kts 242°
2026-04-17 08:28 22.46826 115.89229 29986 ft 490 kts 258°
2026-04-17 08:29 22.46023 115.81907 29978 ft 490 kts 265°
2026-04-17 08:29 22.45491 115.74524 29970 ft 488 kts 266°
2026-04-17 08:30 22.44993 115.67073 29976 ft 489 kts 266°
2026-04-17 08:30 22.44516 115.59673 29973 ft 489 kts 266°
2026-04-17 08:31 22.44046 115.52247 29977 ft 489 kts 266°
2026-04-17 08:31 22.43577 115.44788 29973 ft 489 kts 266°
2026-04-17 08:32 22.43113 115.37414 29973 ft 489 kts 266°
2026-04-17 08:32 22.42643 115.29983 29983 ft 490 kts 266°
2026-04-17 08:33 22.42169 115.22517 29986 ft 490 kts 266°
2026-04-17 08:33 22.41696 115.15113 29985 ft 490 kts 266°
2026-04-17 08:34 22.41219 115.07694 29981 ft 490 kts 266°
2026-04-17 08:34 22.40735 115.00222 29984 ft 489 kts 266°
2026-04-17 08:35 22.40251 114.92805 29975 ft 489 kts 266°
2026-04-17 08:35 22.39846 114.86629 29977 ft 489 kts 266°
2026-04-17 08:35 22.39521 114.81700 29796 ft 479 kts 266°
2026-04-17 08:36 22.39281 114.78092 29701 ft 474 kts 266°
2026-04-17 08:36 22.39041 114.74478 29598 ft 471 kts 266°
2026-04-17 08:36 22.38806 114.70950 29451 ft 469 kts 266°
2026-04-17 08:36 22.38566 114.67364 29250 ft 469 kts 266°
2026-04-17 08:37 22.38332 114.63883 29062 ft 469 kts 266°
2026-04-17 08:37 22.38092 114.60319 28917 ft 468 kts 266°
2026-04-17 08:37 22.37852 114.56774 28801 ft 466 kts 266°
2026-04-17 08:37 22.37615 114.53275 28664 ft 466 kts 266°
2026-04-17 08:38 22.37374 114.49737 28541 ft 465 kts 266°
2026-04-17 08:38 22.36899 114.42789 28382 ft 455 kts 266°
2026-04-17 08:38 22.36665 114.39405 28288 ft 442 kts 266°
2026-04-17 08:39 22.36436 114.36094 28254 ft 428 kts 266°
2026-04-17 08:39 22.35994 114.29725 28313 ft 422 kts 266°
2026-04-17 08:39 22.35776 114.26601 27826 ft 415 kts 266°
2026-04-17 08:40 22.35563 114.23550 27208 ft 402 kts 265°
2026-04-17 08:40 22.35353 114.20548 26676 ft 396 kts 265°
2026-04-17 08:40 22.35144 114.17581 25874 ft 400 kts 265°
2026-04-17 08:40 22.34931 114.14553 24982 ft 406 kts 265°
2026-04-17 08:41 22.34714 114.11472 24074 ft 410 kts 265°
2026-04-17 08:41 22.34501 114.08440 23107 ft 405 kts 264°
2026-04-17 08:41 22.34288 114.05431 22240 ft 397 kts 264°
2026-04-17 08:41 22.34079 114.02498 21408 ft 390 kts 265°
2026-04-17 08:42 22.33873 113.99610 20555 ft 384 kts 264°
2026-04-17 08:42 22.33414 113.96787 19627 ft 379 kts 254°
2026-04-17 08:42 22.32465 113.94164 18702 ft 376 kts 244°
2026-04-17 08:42 22.31580 113.92559 18086 ft 375 kts 237°
2026-04-17 08:43 22.29249 113.89779 16858 ft 375 kts 222°
2026-04-17 08:43 22.27086 113.88226 15955 ft 375 kts 215°
2026-04-17 08:43 22.24857 113.86747 15041 ft 372 kts 216°
2026-04-17 08:43 22.22720 113.85220 14230 ft 372 kts 218°
2026-04-17 08:44 22.20603 113.83592 13308 ft 381 kts 219°
2026-04-17 08:44 22.18409 113.81808 12373 ft 388 kts 220°
2026-04-17 08:44 22.16274 113.80034 11991 ft 378 kts 220°
2026-04-17 08:44 22.14235 113.78323 11657 ft 361 kts 220°
2026-04-17 08:45 22.12296 113.76692 11228 ft 344 kts 220°
2026-04-17 08:45 22.10435 113.75120 10828 ft 328 kts 220°
2026-04-17 08:45 22.08663 113.73614 10519 ft 312 kts 221°
2026-04-17 08:45 22.07011 113.72200 10379 ft 297 kts 221°
2026-04-17 08:46 22.05404 113.70819 10360 ft 282 kts 221°
2026-04-17 08:46 22.03889 113.69514 10178 ft 275 kts 221°
2026-04-17 08:46 22.02385 113.68218 9823 ft 275 kts 220°
2026-04-17 08:46 22.00866 113.66896 9194 ft 285 kts 221°
2026-04-17 08:47 21.99306 113.65531 8475 ft 289 kts 221°
2026-04-17 08:47 21.97724 113.64150 7787 ft 291 kts 221°
2026-04-17 08:47 21.96121 113.62750 7102 ft 293 kts 220°
2026-04-17 08:47 21.95067 113.61832 6651 ft 294 kts 220°
2026-04-17 08:48 21.92938 113.59976 6166 ft 281 kts 220°
2026-04-17 08:48 21.91237 113.58898 6048 ft 280 kts 198°
2026-04-17 08:48 21.89282 113.58712 5733 ft 279 kts 173°
2026-04-17 08:48 21.87390 113.59295 5381 ft 278 kts 151°
2026-04-17 08:49 21.85960 113.60640 5033 ft 276 kts 125°
2026-04-17 08:49 21.85230 113.62563 4706 ft 273 kts 98°
2026-04-17 08:49 21.85362 113.64551 4406 ft 269 kts 72°
2026-04-17 08:49 21.86226 113.66289 4123 ft 265 kts 50°
2026-04-17 08:50 21.87643 113.67497 3838 ft 262 kts 28°
2026-04-17 08:50 21.89390 113.68074 3527 ft 261 kts
2026-04-17 08:50 21.91203 113.67879 3281 ft 257 kts 346°
2026-04-17 08:50 21.92908 113.67366 3213 ft 245 kts 342°
2026-04-17 08:51 21.94523 113.66790 3138 ft 234 kts 339°
2026-04-17 08:51 21.96014 113.66136 3058 ft 222 kts 338°
2026-04-17 08:51 21.97435 113.65547 2973 ft 210 kts 340°
2026-04-17 08:51 21.98818 113.65027 2950 ft 197 kts 341°
2026-04-17 08:52 22.00102 113.64565 2741 ft 192 kts 341°
2026-04-17 08:52 22.01334 113.64123 2510 ft 187 kts 341°
2026-04-17 08:52 22.02548 113.63683 2280 ft 183 kts 340°
2026-04-17 08:52 22.03744 113.63248 2050 ft 179 kts 340°
2026-04-17 08:53 22.04911 113.62821 1824 ft 176 kts 340°
2026-04-17 08:53 22.06087 113.62392 1603 ft 172 kts 340°
2026-04-17 08:53 22.07192 113.61990 1383 ft 163 kts 340°
2026-04-17 08:53 22.08272 113.61594 1167 ft 160 kts 341°
2026-04-17 08:54 22.09327 113.61208 955 ft 157 kts 341°
2026-04-17 08:54 22.10377 113.60824 745 ft 156 kts 341°
2026-04-17 08:54 22.11407 113.60444 527 ft 154 kts 341°
2026-04-17 08:54 22.12432 113.60066 290 ft 150 kts 342°
2026-04-17 08:55 22.13426 113.59694 122 ft 151 kts 342°
2026-04-17 08:55 22.14394 113.59342 24 ft 134 kts 342°
2026-04-17 08:55 22.15143 113.59065 21 ft 88 kts 341°
2026-04-17 08:55 22.15586 113.58904 20 ft 45 kts 341°
2026-04-17 08:56 22.15870 113.58798 19 ft 39 kts 340°
2026-04-17 08:56 22.16074 113.58723 19 ft 25 kts 341°
2026-04-17 08:56 22.16185 113.58663 18 ft 16 kts 310°
2026-04-17 08:56 22.16217 113.58548 18 ft 15 kts 281°
2026-04-17 08:57 22.16240 113.58435 18 ft 15 kts 283°
2026-04-17 08:57 22.16260 113.58324 17 ft 14 kts 271°
2026-04-17 08:57 22.16237 113.58221 17 ft 13 kts 252°
2026-04-17 08:57 22.16207 113.58122 17 ft 13 kts 251°
2026-04-17 08:58 22.16177 113.58030 17 ft 12 kts 251°
2026-04-17 08:58 22.16149 113.57943 18 ft 11 kts 252°
2026-04-17 08:58 22.16125 113.57865 19 ft 10 kts 251°
2026-04-17 08:58 22.16102 113.57797 19 ft 8 kts 244°
2026-04-17 08:59 22.16058 113.57755 20 ft 8 kts 203°
2026-04-17 08:59 22.16001 113.57735 20 ft 8 kts 196°
2026-04-17 08:59 22.15944 113.57719 20 ft 8 kts 194°
2026-04-17 08:59 22.15886 113.57703 20 ft 8 kts 195°
2026-04-17 09:00 22.15855 113.57664 20 ft 7 kts 264°
2026-04-17 09:00 22.15860 113.57616 21 ft 0 kts 282°